Regional Weather Roundup
Issued by NWS

Home | Current Version | Previous Version | Text Only | Print | Product List | Glossary Off
Versions: 1 2 3 4 5 6 7 8 9 10 11 12 13 14 15 16 17 18 19 20 21 22 23 24 25 26 27 28 29 30 31 32 33 34 35 36 37 38 39 40 41 42 43 44 45 46 47 48 49 50

000
ASUS43 KDTX 291910
RWRMI
MICHIGAN HOURLY REGIONAL WEATHER ROUNDUP
NATIONAL WEATHER SERVICE DETROIT/PONTIAC MI
ISSUED BY NATIONAL WEATHER SERVICE GRAND RAPIDS MI
300 PM EDT MON MAY 29 2017

NOTE: "FAIR" INDICATES FEW OR NO CLOUDS BELOW 12,000 FEET WITH NO
SIGNIFICANT WEATHER AND/OR OBSTRUCTION TO VISIBILITY.

MIZ047>049-052>055-059>063-066>070-074>076-081>083-292000-
SOUTHEAST LOWER MICHIGAN

CITY           SKY/WX    TMP DP  RH WIND       PRES   REMARKS
ADRIAN         PTSUNNY   76  48  37 W14G20    29.83F
ALMA           MOSUNNY   73  41  31 SW18G33   29.78R
ANN ARBOR      PTSUNNY   78  53  41 W14       29.81S
BAD AXE        PTSUNNY   72  46  40 SW14      29.74R
DETROIT CITY   MOSUNNY   77  51  40 SW14G21   29.79S
DETROIT        MOSUNNY   77  52  41 SW21G28   29.81S
FLINT          PTSUNNY   75  41  29 W18G29    29.78R
GROSSE ILE     MOSUNNY   78  52  40 W14G22    29.80S
HILLSDALE      PTSUNNY   73  45  35 SW9G23    29.83F
HOWELL         MOSUNNY   77  37  23 SW18G26   29.80S

CITY           SKY/WX    TMP DP  RH WIND       PRES   REMARKS
JACKSON        MOSUNNY   77  43  29 W17G35    29.81S
LANSING        CLOUDY    75  40  28 W16G29    29.80R
MASON          PTSUNNY   74  43  33 W15G25    29.81R
MONROE         PTSUNNY   77  53  42 SW20      29.81S
MT. CLEMENS    CLOUDY    78  55  45 SW15      29.77F
PONTIAC        MOSUNNY   76  46  34 W21G29    29.78S
PORT HOPE        N/A     77  49  37 SW10G23   29.70S
PORT HURON     MOSUNNY   73  50  43 S16G24    29.79S
TRI CITIES     MOSUNNY   76  43  30 W29G41    29.75R
YPSILANTI      MOSUNNY   80  48  32 SW17      29.81S
$$
MIZ043>046-050>051-056>058-064>065-071>073-077>080-292000-
SOUTHWEST LOWER MICHIGAN

CITY           SKY/WX    TMP DP  RH WIND       PRES   REMARKS
BATTLE CREEK   LGT RAIN  72  45  37 W12G23    29.83S
BENTON HARBOR  SUNNY     76  45  33 W20G30    29.83S
BIG RAPIDS     PTSUNNY   68  39  34 W20G33    29.75R
COLDWATER      CLOUDY    77  44  31 W15G24    29.83S
HOLLAND        SUNNY     75  47  36 W22G32    29.82S
GRAND RAPIDS   CLOUDY    74  46  36 W29G37    29.80S
KALAMAZOO      CLOUDY    74  44  34 SW15G26   29.82F
MARSHALL       CLOUDY    74  43  32 W13G25    29.82S
MOUNT PLEASANT SUNNY     74  39  28 W26G39    29.74R
MUSKEGON       MOSUNNY   68  48  48 SW12      29.81R
STURGIS        CLOUDY    73  46  38 W17G24    29.83S
$$
MIZ016>042-292000-
NORTHERN LOWER MICHIGAN

CITY           SKY/WX    TMP DP  RH WIND       PRES   REMARKS
ALPENA         LGT RAIN  68  53  58 E7        29.68F
BEAVER ISLAND  SUNNY     64  49  57 SW17G24   29.68S
BELLAIRE       MOSUNNY   68  45  42 SW8G17    29.70R
CADILLAC       PTSUNNY   65  44  46 W16G26    29.74R
CHARLEVOIX     MOSUNNY   66  48  52 SW15G22   29.72R
GAYLORD        PTSUNNY   68  50  52 W17       29.69S
HOUGHTON LAKE  MOSUNNY   70  42  36 W16G35    29.71S
MANISTEE       PTSUNNY   65  49  56 SW15G24   29.74S
OSCODA         MOSUNNY   79  39  24 SW25G37   29.67S
PELLSTON       MOSUNNY   68  45  43 SW10G24   29.67F
TRAVERSE CITY  CLOUDY    67  45  45 W13G28    29.69R
LUDINGTON      CLOUDY    60  50  69 SW12      29.77S
$$
MIZ007>008-015-292000-
EASTERN UPPER MICHIGAN

CITY           SKY/WX    TMP DP  RH WIND       PRES   REMARKS
KINROSS        MOSUNNY   65  48  54 S13G23    29.65F
MACKINAC ISLAN SUNNY     62  49  63 W14G24    29.66F
NEWBERRY       LGT RAIN  55  51  86 S9G17     29.64S
S. S. MARIE    PTSUNNY   65  49  56 S16G22    29.63F
$$
MIZ004>006-011>014-085-292000-
CENTRAL UPPER MICHIGAN

CITY           SKY/WX    TMP DP  RH WIND       PRES   REMARKS
MANISTIQUE     LGT RAIN  50  47  90 S7        29.65R
ESCANABA       LGT RAIN  57  52  82 SW9       29.64S
SAWYER-GWINN   PTSUNNY   61  48  63 W21G26    29.62S
$$
MIZ001>003-009>011-084-292000-
WESTERN UPPER MICHIGAN

CITY           SKY/WX    TMP DP  RH WIND       PRES   REMARKS
IRON MOUNTAIN  PTSUNNY   65  46  50 W12G22    29.63F
HOUGHTON       LGT RAIN  51  48  89 W20       29.61R
COPPER HARBOR    N/A     45  44  97 N9        29.59R
IRONWOOD       LGT RAIN  56  53  90 W14G22    29.68S
$$

ABBREVIATIONS USED IN REMARKS
   TC - TEMPERATURE IN CELSIUS
  WCI - WIND CHILL INDEX
   HX - HEAT INDEX
  VSB - VISIBILITY





USA.gov is the U.S. government's official web portal to all federal, state and local government web resources and services.